Content
SEND FEEDBACK

Daily
Averages
Monthly
Summary
Honduras

TEGUCIGALPA, HONDURAS


Home > Central America > Honduras
Elevation: 3260 feet     Latitude: 14 03N     Longitude: 087 13W

WEATHER
 
SELECT A DAY
Number of Records: 58,434;   Date Range: 7/9/96 - 11/24/14
 
SHARE

PRINT THIS DATA

[ ← Previous Day ]
WEATHER ALMANAC - JANUARY 2, 2013
[ Next Day → ]
[ °C ]   °F
Weather ElementAverageHighLow
Temperature69.7 °F82.4 °F (2:00 pm)57.2 °F (7:00 am)
Dewpoint59 °F64.4 °F (12:00 am)51.8 °F (2:00 pm)
Humidity72.5 %100 % (12:00 am)25 % (3:00 pm)
Barometer30.02 in30.12 in (9:00 am)29.74 in (3:00 pm)
Wind Speed4 mph8.1 mph (11:00 am)
Weather ElementAverage
Visibility6.4 mi
Wind DirectionE (91.1 °)

Weather ElementTotal
Precipitation---
Cooling Degree Days4.8 (Base 65)
Growing Degree Days19.8 (Base 50)
Averaged from 30 records on January 2, 2013
WEATHER CONDITIONS BREAKOUT
WIND DIRECTION BREAKOUT
WEATHER BY HOUR - JANUARY 2, 2013
[ °C ]   °F
Local TimeTemperatureDewpointHumidityBarometerVisibilityWind DirectionWind SpeedGust SpeedPrecipitationEventsConditions
12:00 AM64.4 °F64.4 °F100 %30.06 in6.2 miCalmScattered Clouds
1:00 AM64.4 °F64.4 °F100 %30.06 in6.2 miCalmMostly Cloudy
2:00 AM64.4 °F64.4 °F100 %30.04 in6.2 miCalmMostly Cloudy
3:00 AM64.0 °F64.0 °F99 %29.90 in6.0 miCalmHaze
3:00 AM64.4 °F64.4 °F100 %30.04 in6.2 miCalmMostly Cloudy
4:00 AM62.6 °F62.6 °F100 %30.04 in6.2 miNE (40°)4.6 mphMostly Cloudy
5:00 AM60.8 °F60.8 °F100 %30.04 in6.2 miSE (140°)4.6 mphMostly Cloudy
6:00 AM59.0 °F59.0 °F100 %30.06 in6.2 miCalmPartly Cloudy
6:00 AM59.0 °F59.0 °F99 %29.96 in6.0 miCalmHaze
7:00 AM57.2 °F57.2 °F100 %30.09 in4.3 miCalmScattered Clouds
8:00 AM62.6 °F62.6 °F100 %30.09 in6.2 miCalmScattered Clouds
9:00 AM68.0 °F64.4 °F88 %30.12 in6.2 miENE (60°)3.5 mphPartly Cloudy
10:00 AM73.4 °F60.8 °F65 %30.09 in6.2 miNorth (350°)5.8 mphPartly Cloudy
11:00 AM78.8 °F59.0 °F51 %30.09 in6.2 miNorth (350°)8.1 mphPartly Cloudy
12:00 PM78.8 °F59.0 °F51 %30.09 in6.2 miNNE (20°)6.9 mphPartly Cloudy
12:00 PM79.0 °F58.0 °F38 %29.83 in9.0 miNNE (20°)6.9 mphHaze
1:00 PM80.6 °F53.6 °F39 %30.01 in6.2 miEast (80°)8.1 mphPartly Cloudy
2:00 PM82.4 °F51.8 °F35 %29.98 in6.2 miEast (80°)8.1 mphPartly Cloudy
3:00 PM82.0 °F52.0 °F25 %29.74 in11.0 miEast (80°)8.1 mphHaze
3:00 PM82.4 °F51.8 °F35 %29.98 in6.2 miEast (80°)8.1 mphPartly Cloudy
4:00 PM80.6 °F53.6 °F39 %29.98 in6.2 miENE (70°)8.1 mphPartly Cloudy
5:00 PM78.8 °F55.4 °F44 %30.01 in6.2 miEast (80°)6.9 mphPartly Cloudy
6:00 PM73.4 °F57.2 °F57 %30.04 in6.2 miNE (50°)4.6 mphPartly Cloudy
6:00 PM73.0 °F58.0 °F49 %29.84 in7.0 miNE (50°)4.6 mphHaze
7:00 PM69.8 °F59.0 °F68 %30.04 in6.2 miNorth (10°)5.8 mphClear
8:00 PM68.0 °F59.0 °F73 %30.06 in6.2 miNNE (30°)3.5 mphClear
9:00 PM65.0 °F59.0 °F75 %29.96 in6.0 miSW (230°)4.6 mphHaze
9:00 PM66.2 °F59.0 °F78 %30.09 in6.2 miSW (230°)4.6 mphPartly Cloudy
10:00 PM64.4 °F59.0 °F83 %30.09 in6.2 miWSW (250°)3.5 mphScattered Clouds
11:00 PM64.4 °F59.0 °F83 %30.09 in6.2 miWSW (250°)2.3 mphMostly Cloudy
Hourly data recorded from MHTG, located miles away from Tegucigalpa, Honduras







STORIES FROM OUR PARTNERS